Regional Weather Roundup
Issued by NWS Green Bay, WI

Home | Current Version | Previous Version | Text Only | Print | Product List | Glossary On
Versions: 1 2 3 4 5 6 7 8 9 10 11 12 13 14 15 16 17 18 19 20 21 22 23 24 25 26 27 28 29 30 31 32 33 34 35 36 37 38 39 40 41 42 43 44 45 46 47 48 49 50
000
ASUS43 KGRB 221310
RWRGRB

NORTH-CENTRAL AND NORTHEAST WISCONSIN REGIONAL WEATHER ROUNDUP
NATIONAL WEATHER SERVICE GREEN BAY WI
700 AM CST MON DEC 22 2014

WIZ005-009-010>012-018-019-221400-
NORTH CENTRAL WISCONSIN

CITY           SKY/WX    TMP DP  RH WIND       PRES   REMARKS
IRONWOOD       CLOUDY    36  32  87 SE8       29.76R
MANITOWISH WTR CLOUDY    32  32 100 S8        29.79R FOG
ARBOR VITAE    CLOUDY    34  33  94 S10       29.80S FOG
EAGLE RIVER    CLOUDY    32  32 100 S8        29.82R FOG
LAND O LAKES   CLOUDY    32  32  99 S10       29.82S FOG
RHINELANDER    CLOUDY    31  30  96 S9        29.82S FOG
PHILLIPS       CLOUDY    32  32 100 S9G16     29.77S FOG
ANTIGO         CLOUDY    30  30  99 SE12      29.84S FOG
TOMAHAWK       CLOUDY    32  31  96 CALM      29.82S FOG
MERRILL        CLOUDY    32  32  99 S8        29.83S FOG
$$

WIZ013-073-221400-
NORTHEAST WISCONSIN

CITY           SKY/WX    TMP DP  RH WIND       PRES   REMARKS
IRON MOUNTAIN  CLOUDY    33  30  88 SE7       29.88S
MARINETTE      CLOUDY    36  30  80 S8        29.93S
OCONTO         CLOUDY    35  33  92 S7        29.92S
$$

WIZ017-030-035>037-045-221400-
CENTRAL WISCONSIN

CITY           SKY/WX    TMP DP  RH WIND       PRES   REMARKS
MEDFORD        CLOUDY    32  31  97 SE10G16   29.79F FOG
WAUSAU         CLOUDY    33  30  88 SE9       29.83S FOG
MOSINEE        CLOUDY    32  32 100 SE9       29.84S FOG
MARSHFIELD     CLOUDY    34  31  88 SE13      29.82S FOG
WISC RAPIDS    CLOUDY    34  29  82 SE7       29.85S
STEVENS POINT  CLOUDY    32  29  91 SE9       29.86S FOG
WAUPACA        LGT SNOW  35  31  85 SE8       29.89S
SHAWANO        CLOUDY    36  31  84 S7        29.90S HAZE
CLINTONVILLE   CLOUDY    34  30  86 SE9       29.89S FOG
$$

WIZ038-039-048-051-221400-
FOX VALLEY

CITY           SKY/WX    TMP DP  RH WIND       PRES   REMARKS
NWS GREEN BAY  CLOUDY    35  32  88 S13       29.92S FOG
APPLETON       NOT AVBL
OSHKOSH        MIX PCPN  33  31  92 SE12      29.91R FOG
FOND DU LAC    LGT SNOW  33  30  88 SE10      29.91S FOG
$$

WIZ022-050-052-221400-
EAST CENTRAL WISCONSIN

CITY           SKY/WX    TMP DP  RH WIND       PRES   REMARKS
STURGEON BAY   CLOUDY    36  30  80 S17       29.95F
MANITOWOC      CLOUDY    37  34  89 S14       29.95R
SHEBOYGAN      CLOUDY    36  32  85 S9        29.94S
$$

LMZ563-521-522-541>543-221400-
LAKESHORE

STATION/POSITION TIME  TEMP    WIND        PRES    VSBY  WAVE
                       AIR SEA DIR/SP/G                  HT/PER
                 (UTC) (F)     (DEG/KT/KT) (MB)    (MI)  (FT/S)
SHEBOYGAN LKSHOR 1300   37 36  160/ 20/ 23 1014.8R
KEWAUNEE LKSHORE 1300   37     170/ 20/ 22 1013.3R
ALGOMA MARINA    1300          240/ 23/ 29   N/A
TWO RIVERS CG    1300   36                 1014.4          4
NORTHPORT PIER   1300   36     160/ 12/ 23 1014.6S
SISTER BAY LKSHO 1200          180/ 12/ 17   N/A
STURGEON BAY CG  1300   37     170/ 16     1016.1    3/8   3
CHAMBERS ISLAND  1300   37     160/  3/  9 1014.2S
MENOMINEE LKSHOR 1300   35     160/ 10/ 14 1014.2S
$$


USA.gov is the U.S. government's official web portal to all federal, state and local government web resources and services.